Regional Weather Roundup
Issued by NWS

Home | Current Version | Previous Version | Graphics & Text | Print | Product List | Glossary On
Versions: 1 2 3 4 5 6 7 8 9 10 11 12 13 14 15 16 17 18 19 20 21 22 23 24 25 26 27 28 29 30 31 32 33 34 35 36 37 38 39 40 41 42 43 44 45 46 47 48 49 50
000
ASUS44 KMEG 040810
RWRTN
TENNESSEE HOURLY STATE WEATHER ROUNDUP
NATIONAL WEATHER SERVICE MEMPHIS TN
200 AM CST SUN DEC 04 2016

TNZ002-004-019-021-049-052-054-088>092-040900-
WEST TENNESSEE

CITY           SKY/WX    TMP DP  RH WIND       PRES   REMARKS
MEMPHIS INTL   LGT RAIN  43  41  93 NE5       30.06R
NWS MEMPHIS      N/A     41 N/A N/A MISG        N/A
JACKSON        LGT RAIN  40  32  73 E9        30.05F WCI  34
DYERSBURG      CLOUDY   N/A N/A N/A NE7       30.10R
UNION CITY     CLOUDY    37  37 100 N7        30.11R WCI  32
PARIS          CLOUDY    36  36 100 E9        30.10F WCI  29
HUNTINGDON     CLOUDY    39  39 100 E10       30.08F FOG     WCI  32
LEXINGTON      CLOUDY    39  39 100 E6        30.09F WCI  35
$$

TNZ008-025-027-028-033-062-065-066-040900-
NORTH MIDDLE TENNESSEE

CITY           SKY/WX    TMP DP  RH WIND       PRES   REMARKS
NASHVILLE      LGT RAIN  40  38  93 E6        30.18S
PORTLAND       CLOUDY    39  37  93 CALM      30.17F
CLARKSVILLE    LGT RAIN  39  36  89 E7        30.15F WCI  34
SMYRNA         LGT RAIN  39  37  93 E3        30.19F FOG
CROSSVILLE     RAIN      37  35  92 E5        30.16F FOG     WCI  33
$$

TNZ061-075-076-078-094-096-097-040900-
SOUTH MIDDLE TENNESSEE

CITY           SKY/WX    TMP DP  RH WIND       PRES   REMARKS
FAYETTEVILLE   CLOUDY    43  41  93 CALM      30.14R FOG
TULLAHOMA      CLOUDY    39  39 100 E5        30.14S
WINCHESTER     CLOUDY    41  39  93 SE10      30.14S
MCMINNVILLE    CLOUDY    39  39 100 CALM      30.15S
COLUMBIA       CLOUDY   N/A N/A N/A E5        30.13F
SHELBYVILLE    CLOUDY    43  43 100 NE3       30.17R
$$

TNZ017-018-042-046-047-040900-
NORTHEAST TENNESSEE

CITY           SKY/WX    TMP DP  RH WIND       PRES   REMARKS
TRI CITIES     CLOUDY    40  31  70 CALM      30.21F
ELIZABETHTON   CLOUDY    39  34  81 CALM      30.21S
$$

TNZ012-013-036-069-073-074-040900-
CENTRAL EAST TENNESSEE

CITY           SKY/WX    TMP DP  RH WIND       PRES   REMARKS
KNOXVILLE      LGT RAIN  40  37  89 N7        30.20S
OAK RIDGE      LGT RAIN  41  38  89 VRB3      30.23R FOG
DOWNTOWN KNOXV CLOUDY    41  39  93 CALM      30.22S FOG
GATLINBURG     CLOUDY    37  36  93 CALM      30.21S
MORRISTOWN     CLOUDY    39  36  87 CALM      30.20S
JACKSBORO      CLOUDY    39  37  93 CALM      30.25R FOG
$$

TNZ083-085-099-040900-
SOUTHEAST TENNESSEE

CITY           SKY/WX    TMP DP  RH WIND       PRES   REMARKS
CHATTANOOGA    RAIN      41  39  93 NE6       30.19F FOG
$$

SKY/WX REPORTED AS FAIR MEANS FEW OR NO CLOUDS BELOW
12 THOUSAND FEET.




USA.gov is the U.S. government's official web portal to all federal, state and local government web resources and services.